This is the latest recevied weather packets stored in our database for station/object KC7WRB. If no packets are shown the sender has not sent any weather packets the latest 10 day(s).
| Time | Temp. | Humidity | Pressure | Rain* | Wind** | Luminosity | Snow |
|---|---|---|---|---|---|---|---|
| 1788587010 | 15.56° C | 41% | 1015.4 hPa | 0 mm | - | 0 W/m² | - |
| 1788586710 | 15° C | 43% | 1015.6 hPa | 0 mm | - | 0 W/m² | - |
| 1788586405 | 14.44° C | 45% | 1015.5 hPa | 0 mm | - | 0 W/m² | - |
| 1788586105 | 14.44° C | 46% | 1015.3 hPa | 0 mm | - | 0 W/m² | - |
| 1788585805 | 15° C | 43% | 1015 hPa | 0 mm | - | 0 W/m² | - |
| 1788585504 | 15.56° C | 43% | 1015 hPa | 0 mm | - | 0 W/m² | - |
| 1788585200 | 15.56° C | 41% | 1015.2 hPa | 0 mm | - | 0 W/m² | - |
| 1788584897 | 16.67° C | 39% | 1015 hPa | 0 mm | - | 0 W/m² | - |
| 1788584593 | 16.67° C | 36% | 1014.9 hPa | 0 mm | - | 0 W/m² | - |
| 1788584288 | 16.67° C | 36% | 1014.9 hPa | 0 mm | - | 0 W/m² | - |
| 1788583983 | 17.22° C | 36% | 1014.8 hPa | 0 mm | - | 0 W/m² | - |
| 1788583708 | 17.22° C | 37% | 1014.7 hPa | 0 mm | - | 0 W/m² | - |
| 1788583374 | 16.67° C | 37% | 1014.7 hPa | 0 mm | - | 0 W/m² | - |
| 1788583072 | 16.67° C | 37% | 1014.7 hPa | 0 mm | - | 0 W/m² | - |
| 1788582767 | 16.67° C | 37% | 1014.8 hPa | 0 mm | - | 0 W/m² | - |
| 1788582462 | 17.22° C | 37% | 1014.8 hPa | 0 mm | - | 0 W/m² | - |
| 1788582161 | 17.78° C | 37% | 1014.5 hPa | 0 mm | - | 0 W/m² | - |
| 1788581857 | 17.78° C | 36% | 1014.4 hPa | 0 mm | - | 0 W/m² | - |
| 1788581552 | 17.78° C | 36% | 1014 hPa | 0 mm | - | 0 W/m² | - |
| 1788581247 | 17.78° C | 35% | 1014.2 hPa | 0 mm | - | 0 W/m² | - |
| 1788580946 | 17.78° C | 34% | 1014 hPa | 0 mm | - | 0 W/m² | - |
| 1788580646 | 18.33° C | 34% | 1014 hPa | 0 mm | - | 0 W/m² | - |
| 1788580342 | 18.33° C | 34% | 1013.9 hPa | 0 mm | - | 0 W/m² | - |
| 1788580039 | 18.33° C | 34% | 1013.8 hPa | 0 mm | - | 0 W/m² | - |
| 1788579738 | 18.33° C | 34% | 1013.9 hPa | 0 mm | - | 0 W/m² | - |
* Rain latest hour (hover to see other rain measurements)
** Current wind speed in m/s (hover to see current wind gust speed)